Simultaneous Nadir Overpasses (SNOs) Predictions

Prediction of SNOs over PacNW region [( 10.00, 139.50) to ( 22.70, 165.60)] between NOAA-19 and NPP Satellites:

Table of predicted SNOs over PacNW region for the next 30.0 days since TLE Epoch: 5/31/2014
Index Date (NOAA-19) Time (NOAA-19) NOAA-19 Lat,Lon Date (NPP) Time (NPP) NPP Lat,Lon Distance(km) Time Diff (sec)
1 06/03/2014 03:49:49 18.20, 147.30 06/03/2014 03:51:06 16.98, 142.25 552.11 77
2 06/03/2014 16:26:14 13.03, 143.23 06/03/2014 16:23:29 13.94, 139.04 464.34 165
3 06/16/2014 03:07:50 21.95, 157.28 06/16/2014 03:08:02 20.80, 152.45 515.95 12
4 06/16/2014 15:43:59 10.05, 153.45 06/16/2014 15:40:23 10.24, 149.30 454.37 216
5 06/28/2014 15:08:23 22.64, 164.63 06/28/2014 15:11:20 23.96, 158.97 596.93 177
6 06/29/2014 04:06:54 22.67, 142.52 06/29/2014 04:05:37 21.79, 137.96 479.45 77
